Tracking 29892 objects as of 21-Nov-2024
HD Live streaming from Space Station
objects crossing your sky now

STARLINK-32419

Track STARLINK-32419 now!
10-day predictions
STARLINK-32419 is classified as:


NORAD ID: 61637
Int'l Code: 2024-191S
Perigee: 421.3 km
Apogee: 423.1 km
Inclination: 43.0 °
Period: 92.9 minutes
Semi major axis: 6793 km
RCS: Unknown
Launch date: October 23, 2024
Source: United States (US)
Launch site: AIR FORCE EASTERN TEST RANGE (AFETR)
Your satellite tracking list
Your tracking list is empty




NASA's NSSDC Master Catalog

Two Line Element Set (TLE):
1 61637U 24191S   24325.44879731  .00002555  00000-0  49347-4 0  9997
2 61637  43.0002 330.4009 0001331 294.8192  65.2530 15.50581514  4804
Source of the keplerian elements: AFSPC